Main page
METAR-TAF:

METAR-TAF

Airports :

Venice Municipal Airport

Venice, Florida, United States

latitude: 27-04-18N, longitude: 082-26-25W, elevation: 16 ft

Current weather observation

The report was made 10 minutes ago, at 06:55 UTC
Wind 10 mph from the East/Northeast
Temperature 70°F
Humidity 73%
Pressure 30.09 in. Hg
Visibility: 8 miles
Clear sky

METAR: KVNC 180655Z AUTO 07009KT 8SM CLR 21/16 A3009 RMK AO2

Time: 03:05 (07:05 UTC)


TAF: missing

Weather observations and forecasts of more than 4000 airports (METAR and TAF reports).

The available stations are represented by yellow and red dots on the map.

Hover mouse over dot to see the name of the station.

Then click to see weather observations and forecasts.

To change the map : click on the green buttons with a black cross to zoom in, on the green button with a dash to zoom out, or on the green arrows for adjacent maps.


METAR-TAF: